Location: Unspecified
(0.0000°N, 0.0000°E)
Time: 20:35:40
(UTC+00:00)

USA 72 - Pass Details

Date: 11 October 2024
Orbit: 2592 x 11654 km, 63.4° (Epoch: 10 November)

Event Time Altitude Azimuth Distance (km) Brightness Sun altitude
Rises 17:13:36 0° 335° (NNW) 16,426 11.5 8.2°
Reaches altitude 10° 17:29:08 10° 333° (NNW) 14,583 11.3 4.3°
Maximum altitude 18:23:11 64° 256° (WSW) 5,848 9.3 -9.1°
Drops below altitude 10° 18:43:32 10° 173° (S) 6,345 9.2 -14.1°
Sets 18:46:58 0° 169° (SSE) 7,015 9.4 -15.0°
